#timestamp,LO_Frequency,Hit,StdDev 
1552636815.7,286047002.2,P
1552636835.5,286047001.5,N
1552636855.4,286047001.8,N
1552636875.2,286047002.1,N
1552636895.0,286047001.4,N
1552636895.9,286047001.4,N
1552636915.8,286047001.4,N
1552636935.6,286047001.5,N
1552636955.4,286047001.8,N
1552636975.3,286047004.3,N
1552636995.1,286047004.0,N
1552637015.8,286047001.3,N
1552637035.7,286047003.8,N
1552637055.5,286047005.8,Y
1552637075.4,286047002.2,P
1552637095.2,286047004.2,P
1552637115.0,286047004.2,P
1552637115.9,286047004.2,Y
1552637135.8,286047001.6,P
1552637155.6,286047002.6,P
1552637175.5,286047002.8,P
1552637195.3,286047004.4,Y
1552637215.1,286047011.9,P
1552637235.9,286046999.8,N
1552637255.7,286047000.1,N
1552637275.5,286047000.6,N
1552637295.4,286046997.1,N
1552637315.2,286046999.2,N
1552637335.1,286046997.0,N
1552637336.0,286046997.0,N
1552637355.8,286046999.6,N
1552637375.6,286046998.7,N
1552637395.5,286047001.0,N
1552637415.3,286047001.1,N
1552637435.2,286046998.2,N
1552637455.9,286046998.5,N
1552637475.7,286047000.4,N
1552637495.6,286047000.3,N
1552637515.4,286047000.2,N
1552637535.2,286047002.5,N
1552637555.1,286047001.9,N
1552637556.0,286047001.9,N
1552637575.8,286047002.3,N
1552637595.7,286047004.4,N
1552637615.5,286047002.7,N
1552637635.3,286046999.7,N
1552637655.2,286047001.2,N
1552637675.9,286046999.9,N
1552637695.7,286047001.4,N
1552637715.6,286047001.5,N
1552637735.4,286047002.1,N
1552637755.2,286046999.7,N
1552637775.1,286046999.8,N
1552637776.0,286046999.8,N
1552637795.8,286047000.4,N
1552637815.7,286046999.7,N
1552637835.5,286047000.3,N
1552637855.3,286047000.1,N
1552637875.2,286047000.1,N
1552637895.0,286046998.1,N
1552637895.9,286046998.1,N
1552637915.7,286046997.1,N
1552637935.6,286046997.6,N
1552637955.4,286046995.1,Y
1552637975.3,286046994.9,P
1552637995.1,286046998.0,N
1552637996.0,286046998.0,N
1552638015.8,286046996.0,N
1552638035.7,286046994.2,Y
1552638055.5,286046997.0,P
1552638075.4,286046999.4,N
1552638095.2,286046997.7,N
1552638115.0,286046996.8,Y
1552638115.9,286046996.8,P
1552638135.8,286046999.7,N
1552638155.6,286047002.6,N
1552638175.4,286047003.3,N
1552638195.3,286047005.9,N
1552638215.1,286047005.5,N
1552638235.9,286047003.4,N
1552638255.7,286047003.6,N
1552638275.5,286047003.2,N
1552638295.4,286047003.2,N
1552638315.2,286047003.3,N
1552638335.0,286047003.0,N
1552638335.9,286047003.0,N
1552638355.8,286047003.1,N
1552638375.6,286047001.4,N
1552638395.4,286047004.1,N
1552638415.3,286047003.5,N
1552638435.1,286047005.3,N
1552638455.9,286047005.7,N
1552638475.7,286047004.7,N
1552638495.5,286047006.9,N
1552638515.4,286047007.3,Y
1552638535.2,286047003.4,P
1552638555.0,286047003.5,P
1552638555.9,286047003.5,P
1552638575.8,286047004.2,Y
1552638595.6,286046998.4,P
1552638615.5,286046997.1,N
1552638635.3,286046995.1,N
1552638655.1,286046992.8,N
1552638675.9,286046992.4,N
1552638695.7,286046992.9,N
1552638715.5,286046992.4,N
1552638735.4,286046992.6,N
1552638755.2,286046992.3,N
1552638775.0,286046991.7,N
1552638775.9,286046991.7,N
1552638795.8,286046991.9,N
1552638815.6,286046994.7,N
1552638835.5,286046993.8,N
1552638855.3,286046993.7,N
1552638875.1,286046993.5,N
1552638895.9,286046994.5,N
1552638915.7,286046993.5,N
1552638935.5,286046997.5,N
1552638955.4,286046995.4,N
1552638975.2,286046995.2,N
1552638995.0,286046998.0,N
1552638995.9,286046998.0,N
1552639015.8,286046995.8,N
1552639035.6,286046994.1,N
1552639055.5,286046993.3,N
1552639075.3,286046993.6,N
1552639095.1,286046996.3,N
1552639115.9,286046996.0,N
1552639135.7,286046993.8,N
1552639155.5,286046993.8,Y
1552639175.4,286047000.1,P
1552639195.2,286046999.9,N
1552639215.1,286047000.7,N
1552639216.0,286047000.7,N
1552639235.8,286046999.9,N
1552639255.6,286047000.8,N
1552639275.5,286047000.5,N
1552639295.3,286047000.9,N
1552639315.1,286046998.8,N
1552639335.9,286046995.3,N
1552639355.7,286046994.3,N
1552639375.6,286046988.7,Y
1552639395.4,286046987.3,P
1552639415.2,286046986.5,N
1552639435.1,286046984.7,N
1552639436.0,286046984.7,N
1552639455.8,286046982.4,Y
1552639475.6,286046994.5,P
1552639495.5,286046994.8,N
1552639515.3,286046993.7,N
1552639535.2,286046997.5,N
1552639555.9,286046998.4,N
1552639575.7,286046998.6,N
1552639595.6,286047000.3,N
1552639615.4,286047002.8,N
1552639635.2,286046999.9,N
1552639655.1,286047000.6,N
1552639656.0,286047000.6,N
1552639675.8,286046999.8,N
1552639695.6,286047002.4,N
1552639715.5,286047000.0,N
1552639735.3,286047000.2,N
1552639755.2,286047000.6,N
1552639775.9,286047002.8,N
1552639795.7,286047000.2,N
1552639815.6,286047001.9,N
1552639835.4,286047004.0,N
1552639855.2,286047003.2,N
1552639875.1,286047003.2,N
1552639876.0,286047011.9,Y
1552639895.8,286047001.6,P
1552639915.7,286047000.0,N
1552639935.5,286047000.0,N
1552639955.3,286047000.4,N
1552639975.2,286046998.7,N
1552639995.9,286046997.6,N
1552640045.8,286046998.6,E
1552640055.7,286046999.4,N
1552640075.5,286047000.9,P
1552640095.4,286046998.9,N
1552640115.2,286046999.4,N
1552640135.0,286046999.5,N
1552640135.9,286046999.5,N
1552640155.8,286046998.9,N
1552640175.6,286047001.0,N
1552640195.4,286047000.8,N
1552640215.3,286047002.8,Y
1552640235.1,286047002.4,P
1552640255.9,286046999.8,N
1552640275.7,286047001.4,N
1552640295.5,286047002.5,N
1552640315.4,286047001.4,N
1552640335.2,286047004.3,Y
1552640355.0,286047002.0,P
1552640355.9,286047002.0,P
1552640375.8,286047005.4,P
1552640395.6,286047004.2,N
